www.pogodaiklimat.ru

Погода и климат >> Архив погоды >> Россия >> Приморский край >> Преображение


АРХИВ ПОГОДЫ в Преображении

Время (UTC), дата Ветер
(напр.,м/с)
 
Видим.   Явления Облачность Т
(С)
Тd
(С)
f
(%)
Тe
(С)
Тes
(С)
Комфортность P
(гПа)
Po
(гПа)
Тmin
(С)
Tmax
(С)
R
(мм)
R24
(мм)
S
(см)
15 9.09 С 5 50 км ясно +18.5 +16.1 86 +19 +19 1010.6 1005.7
18 9.09 С 4 50 км ясно +17.6 +14.8 84 +17 +17 1011.5 1006.5
21 9.09 СВ 2 50 км 8/0
[Ac lent Cc]
+16.7 +12.0 74 +17 +17 1012.9 1008.0 +16.7
00 10.09 Ю 1 50 км 1/0
[Cc]
+22.7 +13.0 54 +26 +33 жарко 1014.2 1009.3 +16.0
03 10.09 Ю 2 50 км 1/0
[Ci fib]
+23.4 +13.2 53 +27 +40 душно 1013.8 1008.9
06 10.09 Ю 3 50 км 3/0
[Ci sp]
+21.7 +14.3 63 +25 +30 комфорт 1012.4 1007.5
09 10.09 СВ 1 50 км 9/0
[Ac trans Ci]
+19.0 +15.4 80 +21 +22 комфорт 1013.3 1008.4 +23.9
12 10.09 В 1 50 км 10/0
[Ac trans Ci fib]
+18.6 +14.6 78 +20 +20 1014.7 1009.8
15 10.09 С 1 10 км слаб. ливневой дождь 10/10 600 м
[Cb cap]
+17.2 +14.1 82 +18 +18 1016.1 1011.1
18 10.09 С 5 10 км слаб. ливневой дождь 10/10 600 м
[Cb cap]
+15.8 +14.1 90 +15 +15 1016.3 1011.3
21 10.09 С 4 50 км {ливн. осадки} 9/3 600 м
[Cb cap Ac trans]
+15.9 +13.7 87 +15 +15 1016.7 1011.6 +15.5 0.7
00 11.09 Ю 1 50 км {ливн. осадки} 3/1 600 м
[Cu med, cong Ac cast]
+20.7 +14.9 69 +25 +30 комфорт 1016.9 1012.0 +15.3
03 11.09 Ю 3 50 км 3/3 600 м
[Cu med, cong]
+20.7 +14.5 68 +24 +31 комфорт 1015.7 1010.8
06 11.09 Ю 2 50 км 4/4 600 м
[Cu med, cong]
+22.0 +14.4 62 +25 +29 комфорт 1014.8 1009.9
09 11.09 ЮВ 2 50 км ясно +18.4 +7.0 47 +19 +19 1016.6 1011.7 +22.9
12 11.09 С 2 50 км ясно +13.0 +7.5 69 +12 +12 1019.1 1014.0
15 11.09 С 4 50 км ясно +11.3 +6.7 73 +9 +9 1019.4 1014.3
18 11.09 В 1 50 км ясно +12.1 +6.8 70 +12 +12 1018.5 1013.4
21 11.09 С 2 50 км ясно +13.1 +5.8 61 +13 +13 1019.6 1014.6 +10.3
00 12.09 З 1 50 км ясно +17.8 +9.2 57 +19 +26 1019.9 1014.9
03 12.09 З 2 50 км 1/1 600 м
[Cu hum]
+20.8 +8.0 44 +23 +34 комфорт 1019.8 1014.8
06 12.09 Ю 3 50 км 3/0
[Ci fib]
+19.8 +12.1 61 +22 +27 комфорт 1018.2 1013.3
09 12.09 ЮЗ 1 50 км 8/0
[Ci fib]
+16.8 +14.0 84 +18 +18 1018.5 1013.5 +21.9
12 12.09 С 5 50 км 8/0
[Ci fib]
+12.9 +10.6 86 +11 +11 1020.1 1015.0
15 12.09 С 5 50 км 3/0
[Ci fib]
+11.4 +9.1 86 +9 +9 1019.9 1014.8
18 12.09 С 6 50 км ясно +10.4 +8.4 87 +7 +7 1018.8 1013.7
21 12.09 С 7 50 км ясно +10.3 +8.2 87 +7 +7 1019.2 1014.0 +9.8
00 13.09 ЮВ 3 50 км ясно +18.3 +14.6 79 +19 +24 1019.7 1014.7
03 13.09 Ю 1 50 км 3/0
[Ci fib]
+20.6 +13.4 63 +24 +38 комфорт 1018.2 1013.3
06 13.09 З 1 50 км 10/1 600 м
[Cu hum Ci fib]
+19.6 +13.3 67 +22 +28 комфорт 1017.7 1012.8
09 13.09 СЗ 1 50 км 10/0
[Ac trans Cc]
+17.2 +13.1 77 +18 +18 1016.8 1011.8 +20.6
12 13.09 С 4 50 км 8/0
[Ac trans Cc]
+14.1 +12.4 89 +13 +13 1016.8 1011.8
15 13.09 С 4 50 км 10/0
[As trans]
+14.4 +12.1 86 +13 +13 1014.3 1009.2
18 13.09 С 4 50 км 10/0
[As op]
+14.5 +12.8 90 +13 +13 1013.1 1008.1
21 13.09 С 4 50 км в посл. час ливневой дождь 10/5 600 м
[Cb cap Ac und]
+15.4 +14.1 92 +14 +14 1011.9 1007.0 +12.8 0.0
00 14.09 штиль 0 10 км ливневой дождь 10/10 300 м
[Cb cap]
+16.6 +16.0 96 +16 +16 1011.9 1006.9
03 14.09 штиль 0 50 км в посл. час ливневой дождь 10/6 600 м
[Cb cap Ac und]
+17.4 +16.9 97 +17 +19 1010.7 1005.7
06 14.09 Ю 1 50 км {ливн. осадки} 10/3 300 м
[St Ac und]
+17.4 +16.9 97 +18 +20 1009.4 1004.5
09 14.09 штиль 0 50 км в посл. час ливневой дождь 10/4 600 м
[Sc diur, vesp Ac und]
+17.4 +17.0 97 +17 +17 1009.9 1005.0 +18.1 4
12 14.09 СВ 1 50 км {ливн. осадки} 9/3 600 м
[Sc Ac trans]
+16.4 +16.2 99 +17 +17 1012.0 1007.1
15 14.09 СВ 2 50 км 8/0
[Ac trans]
+15.0 +14.4 96 +15 +15 1012.5 1007.5
18 14.09 СВ 3 50 км 1/0
[Ac cast]
+14.4 +10.8 79 +13 +13 1012.7 1007.7
21 14.09 С 4 50 км 8/0
[Ac cast Ci fib]
+12.9 +8.4 74 +11 +11 1013.8 1008.8 +12.6 0.3
00 15.09 СВ 3 50 км 5/0
[Cc]
+20.3 +6.5 41 +22 +26 комфорт 1014.3 1009.4 +12.5
03 15.09 В 5 50 км 3/0
[Cc]
+21.4 +6.6 38 +22 +28 комфорт 1014.1 1009.2
06 15.09 В 3
{12}
50 км ясно +20.7 +6.2 39 +22 +27 комфорт 1012.7 1007.8
09 15.09 СВ 3 50 км ясно +17.4 +6.7 49 +17 +17 1012.8 1007.8 +21.9
12 15.09 С 5 50 км 3/0
[Ci sp]
+13.0 +7.1 67 +11 +11 1013.5 1008.4
15 15.09 С 5 50 км 10/0
[Ac und]
+12.2 +5.3 63 +10 +10 1012.5 1007.5
18 15.09 С 6 50 км 10/0
[As trans]
+11.3 +5.8 69 +8 +8 1011.9 1006.8
21 15.09 С 5 50 км 10/0
[Ac und]
+13.0 +4.6 57 +11 +11 1011.2 1006.2 +10.4
00 16.09 С 4 50 км 9/0
[Ac trans Ci fib]
+15.8 +6.4 54 +15 +18 1011.3 1006.3
03 16.09 Ю 1 50 км 1/0
[Ci fib]
+19.8 +13.0 65 +23 +37 комфорт 1010.4 1005.5
06 16.09 Ю 2 50 км ясно +19.9 +14.0 69 +22 +29 комфорт 1009.3 1004.4
09 16.09 СЗ 1 50 км ясно +18.0 +14.8 82 +19 +19 1009.9 1005.0 +20.7

 

Местоположение метеостанции Преображение (Приморский край, Россия): широта 42.90 долгота 133.90 высота над уровнем моря 43 м.

В архиве по умолчанию представлена погода в Преображении за последнюю неделю. Архивные данные за месяц целиком и за предыдущие месяцы, начиная с января 2011 года, Вы можете получить, выбрав интересующий диапазон дат из раскрывающегося списка и нажав кнопку "Ввод!".


*Определитесь, кто Вы:
робот инопланетянин человек

Внимание! Время в таблицах - всемирное. Для получения местного времени необходимо прибавить поправку, которая равна 10 ч.

Смотрите также архив погоды в соседних городах и на ближайших метеорологических станциях:

Погода в Лазо (Приморский край, Россия) (56 км)
Погода в Лучегорске (Приморский край, Россия) (75 км)
Погода в Партизанске (Приморский край, Россия) (78 км)
Погода в Находке (Приморский край, Россия) (90 км)
Погода в Многоудобном (Приморский край, Россия) (132 км)
Погода в Чугуевке (Приморский край, Россия) (139 км)
Погода в Анучино (Приморский край, Россия) (139 км)
Погода в Ольге (Приморский край, Россия) (148 км)
Погода в Дальнегорске (Приморский край, Россия) (153 км)
Погода на Мысе Назимова (Приморский край, Россия) (164 км)

Пояснения к столбцам:

Ветер - указаны скорость ветра в м/с - средняя за 10 мин, порывы в срок и между сроками (в фигурных скобках) и направление, откуда дует ветер: С - северный, СВ - северо-восточный, В - восточный, ЮВ - юго-восточный, Ю - южный, ЮЗ - юго-западный, З - западный, СЗ - северо-западный.
Видимость - горизонтальная дальность видимости в метрах или километрах. При видимости от 1 до 10 км при отсутствии осадков обычно наблюдается дымка, при ухудшении видимости до 1 км и менее - туман. В сухую погоду видимость может ухудшаться дымом, пылью или мглою.
Явления - указаны атмосферные явления, наблюдавшиеся в срок или в последний час перед сроком; фигурными скобками обозначены явления, наблюдавшиеся между сроками (за 1-3 часа до срока); квадратными скобками обозначены град или гололедные отложения с указанием их диаметра в мм.
Облачность - указаны через наклонную черту общая и нижняя облачность в баллах и высота нижней границы облаков в метрах; квадратными скобками обозначены формы облаков: Ci - перистые, Cs - перисто-слоистые, Cc - перисто-кучевые, Ac - высококучевые, As - высокослоистые, Sc - слоисто-кучевые, Ns - слоисто-дождевые, Cu - кучевые, Cb - кучево-дождевые. Подробнее классификацию облаков см. в Атласе облаков (PDF).
T - Температура воздуха - температура, измеренная на высоте 2 м над землей.
Td - Температура точки росы - температура, при понижении до которой содержащийся в воздухе водяной пар достигнет насыщения.
f - Относительная влажность воздуха - влажноcть воздуха, измеренная на высоте 2 м над землей.
Te - Эффективная температура - температура, которую ощущает одетый по сезону человек в тени. Характеристика душности погоды. При расчете учитывается влияние влажности воздуха и скорости ветра на теплоощущения человека.
Tes - Эффективная температура на солнце - температура, которую ощущает человек, с поправкой на солнечный нагрев. Характеристика знойности погоды. Зависит от высоты солнца над горизонтом, облачности и скорости ветра. Ночью, в пасмурную погоду, а также при ветре 12 м/с и более поправка равна нулю.
P - Атмосферное давление - приведенное к уровню моря атмосферное давление.
Po - Атмосферное давление - измеренное на уровне метеостанции атмосферное давление.
Tmin - Минимальная температура - минимум температуры воздуха на высоте 2 м над землей.
Tmax - Максимальная температура - максимум температуры воздуха на высоте 2 м над землей.
R - Количество осадков - Количество выпавших осадков за период времени, мм. При наведении курсора мыши на число - период времени, за который выпало указанное количество осадков.
R24 - Количество осадков - Количество выпавших осадков за 24 часа, мм.
S - Снежный покров - Высота снежного покрова, см. При наведении курсора мыши на число - состояние снежного покрова и степень покрытия местности в баллах.